TimeCEST,TemperatureF,Dew PointF,Humidity,Sea Level PressureIn,VisibilityMPH,Wind Direction,Wind SpeedMPH,Gust SpeedMPH,PrecipitationIn,Events,Conditions,WindDirDegrees,DateUTC
12:25 AM,48.2,46.4,93,29.42,6.2,SSW,5.8,-,N/A,,Overcast,210,2012-10-14 22:25:00
12:55 AM,46.4,46.4,100,29.42,6.2,SW,6.9,-,N/A,,Unknown,230,2012-10-14 22:55:00
1:25 AM,46.4,46.4,100,29.42,6.2,WSW,4.6,-,N/A,,Partly Cloudy,250,2012-10-14 23:25:00
1:55 AM,48.2,46.4,93,29.44,6.2,SW,5.8,-,N/A,,Mostly Cloudy,230,2012-10-14 23:55:00
2:00 AM,47,47,100,29.45,9,SW,6.7,,,,Partly Cloudy,230,2012-10-15 00:00:00
2:25 AM,48.2,48.2,100,29.44,6.2,WSW,4.6,-,N/A,Rain,Light Rain,240,2012-10-15 00:25:00
2:55 AM,48.2,48.2,100,29.44,3.7,Variable,2.3,-,N/A,Rain,Rain,0,2012-10-15 00:55:00
3:25 AM,48.2,48.2,100,29.44,6.2,Variable,1.2,-,N/A,,Overcast,0,2012-10-15 01:25:00
3:55 AM,48.2,48.2,100,29.47,6.2,NW,4.6,-,N/A,,Mostly Cloudy,310,2012-10-15 01:55:00
4:25 AM,50.0,46.4,87,29.47,6.2,NNW,6.9,-,N/A,,Scattered Clouds,330,2012-10-15 02:25:00
4:55 AM,50.0,46.4,87,29.47,6.2,NW,8.1,-,N/A,,Scattered Clouds,320,2012-10-15 02:55:00
5:00 AM,50,46,81,29.51,16,NW,6.7,,,,Partly Cloudy,320,2012-10-15 03:00:00
5:25 AM,50.0,46.4,87,29.50,6.2,NW,11.5,-,N/A,,Mostly Cloudy,320,2012-10-15 03:25:00
5:55 AM,48.2,42.8,82,29.50,6.2,NW,9.2,-,N/A,,Unknown,310,2012-10-15 03:55:00
6:25 AM,46.4,41.0,81,29.53,6.2,NW,5.8,-,N/A,,Unknown,310,2012-10-15 04:25:00
6:55 AM,46.4,37.4,71,29.53,6.2,WNW,5.8,-,N/A,,Partly Cloudy,300,2012-10-15 04:55:00
7:25 AM,44.6,37.4,76,29.53,6.2,WNW,4.6,-,N/A,,Partly Cloudy,300,2012-10-15 05:25:00
7:55 AM,46.4,37.4,71,29.56,6.2,WNW,5.8,-,N/A,,Unknown,290,2012-10-15 05:55:00
8:00 AM,45,38,68,29.57,25,West,4.5,,,,Partly Cloudy,280,2012-10-15 06:00:00
8:25 AM,44.6,37.4,76,29.56,6.2,WNW,5.8,-,N/A,,Partly Cloudy,290,2012-10-15 06:25:00
8:55 AM,46.4,39.2,76,29.56,6.2,West,5.8,-,N/A,,Partly Cloudy,260,2012-10-15 06:55:00
9:25 AM,48.2,42.8,82,29.59,6.2,WSW,4.6,-,N/A,,Partly Cloudy,250,2012-10-15 07:25:00
9:55 AM,50.0,41.0,71,29.59,6.2,West,5.8,-,N/A,,Unknown,260,2012-10-15 07:55:00
10:25 AM,51.8,42.8,71,29.62,6.2,West,6.9,-,N/A,,Unknown,270,2012-10-15 08:25:00
10:55 AM,51.8,41.0,67,29.62,6.2,West,8.1,-,N/A,,Unknown,270,2012-10-15 08:55:00
11:00 AM,53,42,58,29.65,25,West,6.7,,,,Scattered Clouds,270,2012-10-15 09:00:00
11:25 AM,55.4,42.8,63,29.62,6.2,West,6.9,-,N/A,,Mostly Cloudy,260,2012-10-15 09:25:00
11:55 AM,51.8,41.0,67,29.65,6.2,West,10.4,-,N/A,,Mostly Cloudy,270,2012-10-15 09:55:00
12:25 PM,51.8,42.8,71,29.65,6.2,West,10.4,-,N/A,,Unknown,260,2012-10-15 10:25:00
12:55 PM,55.4,44.6,67,29.65,6.2,WSW,12.7,-,N/A,,Unknown,240,2012-10-15 10:55:00
1:25 PM,53.6,41.0,62,29.65,6.2,SW,16.1,-,N/A,,Partly Cloudy,230,2012-10-15 11:25:00
1:55 PM,55.4,42.8,63,29.65,6.2,SW,13.8,-,N/A,,Partly Cloudy,230,2012-10-15 11:55:00
2:00 PM,55,41,49,29.66,19,SW,15.7,,,,Partly Cloudy,230,2012-10-15 12:00:00
2:25 PM,55.4,41.0,58,29.65,6.2,SW,15.0,-,N/A,,Unknown,220,2012-10-15 12:25:00
2:55 PM,53.6,42.8,67,29.65,6.2,SW,12.7,-,N/A,,Mostly Cloudy,220,2012-10-15 12:55:00
3:25 PM,53.6,42.8,67,29.65,6.2,SSW,17.3,28.8,N/A,,Scattered Clouds,210,2012-10-15 13:25:00
3:55 PM,53.6,41.0,62,29.65,6.2,SSW,16.1,27.6,N/A,,Partly Cloudy,210,2012-10-15 13:55:00
4:25 PM,53.6,42.8,67,29.65,6.2,SSW,19.6,-,N/A,,Partly Cloudy,200,2012-10-15 14:25:00
4:55 PM,53.6,42.8,67,29.62,6.2,South,15.0,-,N/A,,Unknown,190,2012-10-15 14:55:00
5:00 PM,53,43,58,29.65,22,South,13.4,,,,Overcast,190,2012-10-15 15:00:00
5:25 PM,53.6,42.8,67,29.62,6.2,South,16.1,-,N/A,,Partly Cloudy,190,2012-10-15 15:25:00
5:55 PM,53.6,44.6,72,29.62,6.2,South,17.3,-,N/A,,Unknown,190,2012-10-15 15:55:00
6:25 PM,53.6,44.6,72,29.62,6.2,South,16.1,-,N/A,,Unknown,190,2012-10-15 16:25:00
6:55 PM,53.6,46.4,77,29.62,6.2,South,16.1,-,N/A,,Unknown,190,2012-10-15 16:55:00
7:25 PM,51.8,46.4,82,29.62,6.2,South,16.1,-,N/A,,Partly Cloudy,190,2012-10-15 17:25:00
7:55 PM,51.8,46.4,82,29.65,6.2,South,13.8,-,N/A,,Partly Cloudy,190,2012-10-15 17:55:00
8:00 PM,52,47,79,29.65,28,South,13.4,,,,Partly Cloudy,190,2012-10-15 18:00:00
8:25 PM,51.8,48.2,88,29.65,6.2,SSW,16.1,-,N/A,,Unknown,200,2012-10-15 18:25:00
8:55 PM,51.8,48.2,88,29.65,6.2,SSW,16.1,-,N/A,,Unknown,200,2012-10-15 18:55:00
9:25 PM,51.8,46.4,82,29.65,6.2,South,16.1,-,N/A,,Partly Cloudy,190,2012-10-15 19:25:00
9:55 PM,51.8,46.4,82,29.65,6.2,SSW,17.3,-,N/A,,Unknown,200,2012-10-15 19:55:00
10:25 PM,51.8,48.2,88,29.65,6.2,SSW,16.1,-,N/A,,Partly Cloudy,200,2012-10-15 20:25:00
10:55 PM,51.8,48.2,88,29.65,6.2,South,16.1,-,N/A,Rain,Light Rain,190,2012-10-15 20:55:00
11:00 PM,51,48,87,29.68,13,South,13.4,,,Rain,Light Rain Showers,190,2012-10-15 21:00:00
11:25 PM,51.8,48.2,88,29.65,6.2,South,15.0,-,N/A,,Partly Cloudy,190,2012-10-15 21:25:00
11:55 PM,51.8,48.2,88,29.65,6.2,SSW,13.8,-,N/A,,Partly Cloudy,200,2012-10-15 21:55:00